GFSNE_700_spd_207.txt.gz
Wind_Speed
52 53 54 55 57 57 53 50 54 52 58 58 61 54 41 61 63 66 56 59 62 59 54 50 45 43 37 36 36 34 34 30 32 27 23 25 27 26
50 50 51 50 50 51 52 46 48 56 56 59 53 58 49 44 58 61 65 64 58 59 55 49 46 46 35 33 35 35 35 30 33 35 24 26 28 27
49 49 52 53 55 56 54 50 44 50 55 56 51 54 50 56 47 65 65 62 57 60 60 50 47 43 36 37 38 35 34 36 31 30 23 24 28 27
49 54 55 57 59 58 56 55 46 46 51 53 54 49 43 45 46 43 64 50 56 55 57 55 53 52 38 41 44 36 34 30 27 25 29 27 28 27
51 53 53 52 54 54 55 56 49 41 48 50 58 49 46 41 41 44 45 51 57 53 54 55 54 47 45 44 41 36 33 28 26 29 26 26 26 25
48 46 44 42 41 41 44 46 51 50 42 50 53 47 39 45 46 41 43 51 56 55 53 51 52 51 50 45 38 39 33 25 27 28 25 25 25 23
36 34 33 33 35 35 34 37 42 52 55 54 45 51 44 41 39 40 40 40 54 55 55 53 55 50 48 45 43 35 28 27 29 26 24 24 23 23
31 30 33 35 38 38 31 30 34 44 45 53 48 48 54 47 44 42 41 44 55 56 54 52 48 47 47 45 37 33 29 29 28 25 23 23 21 21
31 32 33 35 36 33 26 28 32 40 44 50 42 43 46 39 37 38 42 36 45 52 56 48 45 47 46 43 39 34 29 28 28 24 23 22 21 21
29 27 27 29 27 27 27 27 31 39 49 44 37 40 39 34 38 39 32 46 50 55 51 47 46 47 47 43 37 31 31 29 25 22 22 23 22 21
21 18 18 15 8 11 1 9 23 39 47 43 37 33 32 40 36 35 45 44 51 57 52 46 45 47 47 42 38 32 31 29 25 25 24 22 21 20
13 7 6 10 9 10 13 9 14 37 42 42 34 32 35 29 30 25 21 37 50 54 49 43 41 46 45 41 33 34 34 26 26 24 23 22 21 20
6 9 17 19 18 19 21 18 2 21 28 29 34 42 33 23 24 26 27 31 38 42 36 37 39 43 45 35 34 35 25 27 26 25 23 22 21 21
7 10 18 21 17 16 19 16 11 3 23 29 23 19 18 21 21 22 26 33 33 26 27 32 38 43 36 32 31 23 27 27 26 24 23 22 22 22
10 9 13 17 18 18 20 17 12 9 12 15 18 19 18 19 20 19 20 24 23 24 25 30 36 32 29 24 24 26 25 24 24 24 24 23 23 22
12 10 9 10 14 16 20 22 19 18 12 10 9 10 14 20 24 25 23 26 27 29 33 36 30 26 25 29 26 26 26 25 24 23 24 25 24 24
12 12 11 9 7 10 15 16 13 9 8 12 14 22 27 29 32 34 32 33 33 34 32 32 26 28 27 28 28 26 25 24 25 26 26 26 26 25
13 11 13 14 13 11 9 10 13 17 18 16 16 21 23 27 26 26 23 20 22 25 26 26 23 24 27 27 26 25 26 27 28 28 27 26 27 27
11 8 7 7 7 10 10 12 15 17 16 16 16 18 20 23 24 24 24 24 24 24 24 23 24 26 26 25 25 27 29 29 28 27 28 29 29 30
13 14 13 11 9 7 9 10 10 11 12 14 16 20 24 25 25 24 21 18 17 17 20 23 26 28 28 28 29 28 27 26 27 27 27 28 33 34
11 11 11 11 9 5 4 7 12 14 15 16 17 18 18 17 16 14 13 14 16 20 23 24 24 25 25 25 25 25 26 26 27 31 34 33 33 34
9 9 9 8 7 7 5 5 4 5 7 9 11 12 12 13 13 14 15 17 18 19 20 21 22 24 26 28 27 29 30 30 30 29 30 31 32 31
9 8 8 8 7 7 7 5 4 2 2 3 5 8 11 14 16 18 20 23 24 25 26 28 29 30 29 25 24 26 27 27 27 28 29 29 29 30

GFSNE_700_spd_210.txt.gz
Wind_Speed
50 51 55 53 52 50 51 53 53 56 55 54 57 56 54 43 45 45 48 41 45 69 68 52 53 61 51 47 43 40 37 33 33 24 27 27 25 25
51 53 52 51 53 54 47 48 52 55 57 50 50 56 52 49 38 39 40 49 38 69 65 54 51 59 60 48 46 44 40 36 31 30 30 32 30 24
49 47 46 46 48 50 52 52 49 52 52 49 45 49 49 46 42 32 38 38 52 57 59 57 47 58 57 52 49 44 39 35 32 31 31 29 29 27
46 48 48 48 50 52 53 55 57 59 57 58 44 49 50 40 41 44 35 30 43 38 60 52 48 51 56 58 55 41 41 36 32 34 27 28 28 24
48 49 49 49 51 49 48 49 49 50 53 47 45 51 51 43 38 35 32 32 36 32 63 54 48 43 51 55 50 44 39 34 30 31 29 28 26 26
47 48 49 48 46 43 41 41 40 39 38 46 45 47 48 42 39 38 35 36 37 39 63 53 48 43 47 49 51 47 40 40 40 30 29 27 26 27
45 43 41 38 36 35 35 31 32 35 35 37 49 48 45 40 41 40 36 39 39 44 52 53 51 47 49 48 51 48 47 42 34 34 31 24 24 25
38 32 31 30 31 33 33 33 36 38 34 32 38 45 40 40 36 39 41 41 40 40 45 55 52 48 50 50 48 50 47 40 38 35 26 25 24 24
31 28 27 28 30 32 33 33 35 34 32 29 36 47 37 39 37 41 37 33 32 38 44 51 52 52 49 48 50 48 47 39 38 31 24 27 25 23
30 30 29 18 18 30 31 28 28 29 27 30 30 41 46 33 28 31 27 30 35 44 48 49 51 52 48 47 46 45 41 41 35 24 29 26 22 21
27 26 18 13 15 19 19 16 19 24 29 23 32 29 24 27 28 32 37 37 35 39 45 51 52 51 47 46 45 43 45 38 30 28 27 24 23 22
22 18 18 17 11 9 11 4 5 11 20 27 33 29 24 25 26 25 30 35 33 39 47 50 53 52 50 47 45 44 41 36 31 30 27 23 20 20
18 13 16 16 11 12 7 11 11 7 16 28 29 25 25 24 29 36 35 32 25 29 32 40 48 48 46 44 45 42 42 37 32 31 24 22 24 26
18 11 19 21 13 13 19 18 10 9 10 24 24 21 23 25 25 22 21 18 17 26 40 23 41 42 40 41 41 44 40 33 28 24 22 25 25 23
18 16 15 18 19 18 24 22 20 17 11 8 10 10 12 15 17 15 8 5 9 13 16 24 34 35 33 34 32 35 32 23 20 20 24 23 23 23
16 16 13 13 14 18 17 19 20 19 17 12 9 10 13 17 17 14 12 9 8 9 15 23 21 22 26 32 32 25 20 20 18 20 23 24 23 23
16 18 17 12 8 7 9 9 11 11 11 12 11 12 16 18 18 19 18 18 18 16 22 25 26 29 34 33 26 19 20 22 23 24 24 23 24 25
12 12 13 12 11 9 6 5 5 10 11 11 10 10 11 15 19 19 18 16 16 18 21 28 30 35 34 28 24 24 25 22 23 24 26 25 26 26
13 12 12 12 8 7 8 7 8 8 9 9 8 9 11 14 16 17 18 17 18 21 25 28 29 28 25 22 23 23 22 24 25 26 25 26 28 27
10 10 11 11 11 8 4 4 4 5 6 7 9 12 14 14 15 16 16 15 17 19 23 26 25 24 22 19 19 20 23 24 24 25 26 28 26 27
8 8 9 9 8 7 5 3 1 2 4 7 9 12 15 16 18 20 20 20 19 19 20 21 20 20 22 24 24 25 25 25 27 27 27 28 31 31
5 5 6 6 6 6 4 2 1 2 4 7 10 12 13 14 15 15 15 14 14 14 13 13 15 18 20 21 22 24 25 25 27 30 29 30 31 32
6 5 5 5 5 5 5 5 5 4 4 5 6 7 9 9 10 10 11 12 12 12 14 16 18 20 22 23 26 27 27 26 26 27 28 29 30 31

GFSNE_700_spd_216.txt.gz
Wind_Speed
47 46 47 49 53 54 55 54 54 57 54 52 54 52 53 49 43 40 43 40 35 36 39 41 39 45 54 44 45 52 40 42 50 50 46 44 37 38
45 45 48 49 49 48 50 52 54 56 61 57 54 56 53 50 48 43 41 40 38 37 35 40 40 38 52 49 43 57 46 45 42 47 51 47 43 40
43 46 44 43 45 49 51 53 54 53 56 57 56 55 51 49 48 52 43 43 41 39 35 35 37 36 41 39 52 39 41 48 48 45 48 40 44 40
41 39 41 46 49 50 50 50 49 47 48 51 49 46 46 42 41 43 53 46 42 41 36 33 39 32 47 46 43 50 44 44 47 45 41 41 43 41
38 41 44 46 47 47 47 47 45 43 41 44 44 39 38 32 32 39 44 44 44 39 33 34 37 32 35 41 45 53 49 45 45 47 49 40 37 37
38 42 44 44 44 45 44 44 42 40 39 39 39 38 35 30 29 28 32 41 50 40 40 32 38 31 36 39 52 49 55 48 45 46 46 43 36 38
38 39 40 39 39 40 39 39 36 36 38 39 35 32 30 29 22 23 27 22 26 36 37 31 33 31 34 44 46 61 53 38 34 35 44 41 40 39
35 34 34 34 36 35 35 37 40 42 40 40 36 30 23 22 22 21 18 18 20 22 31 26 25 27 37 53 50 42 37 36 35 28 37 43 41 38
32 32 31 33 34 35 36 37 36 35 36 33 26 21 19 18 18 18 17 18 17 17 17 15 34 47 29 23 36 34 40 36 30 28 35 43 40 42
30 29 32 31 31 37 38 37 36 35 34 33 27 22 13 11 14 14 20 14 19 19 19 22 24 36 34 32 34 38 35 29 29 27 33 40 43 44
25 27 29 27 32 33 34 35 34 34 35 22 11 11 12 9 13 13 21 12 16 15 19 21 22 22 27 40 32 29 25 28 29 27 26 35 43 45
21 22 24 23 27 29 31 32 28 25 15 8 4 3 7 9 13 15 11 15 17 18 20 19 19 19 43 38 32 32 30 31 29 25 25 28 30 31
18 20 20 19 23 25 28 30 24 18 12 12 10 7 10 17 17 15 16 13 12 9 12 12 15 24 40 48 40 38 37 36 31 29 28 27 30 33
16 19 20 20 21 22 23 26 25 17 14 13 12 9 7 6 13 15 12 11 11 8 7 8 6 16 22 36 43 43 42 36 32 29 26 28 33 35
17 18 20 19 19 21 19 20 21 19 8 5 4 5 4 7 13 11 8 10 10 12 15 16 8 8 14 24 27 39 41 35 34 28 27 29 33 37
16 18 18 18 17 18 18 16 15 15 15 9 4 3 5 10 12 13 11 11 13 14 16 16 17 17 11 21 33 37 34 31 28 28 29 30 30 28
15 16 17 17 16 15 15 15 15 15 13 12 10 6 4 5 10 12 13 14 15 14 14 16 18 19 15 14 24 28 26 25 25 26 28 28 29 27
16 16 16 16 16 14 13 12 13 13 13 14 13 9 5 3 6 9 12 14 14 14 14 15 16 19 18 17 18 18 22 20 23 25 26 28 25 27
15 16 16 17 16 14 13 11 10 10 11 11 11 11 8 3 4 6 7 7 9 11 12 11 15 18 19 18 19 21 17 19 22 23 25 23 23 23
12 14 15 16 16 15 13 11 10 9 9 8 8 7 7 6 5 7 8 8 8 10 9 9 10 11 10 12 16 20 22 18 20 21 23 24 23 23
11 12 14 14 14 14 14 13 12 10 9 8 7 5 5 4 4 5 6 8 7 7 8 9 10 13 12 10 13 17 20 20 19 18 18 19 18 16
9 10 11 12 12 12 12 13 13 13 10 8 7 5 4 5 5 5 6 6 8 8 7 7 9 11 11 11 11 11 12 14 14 14 14 14 15 16
7 7 8 9 10 10 10 10 10 10 10 9 6 4 5 5 5 6 7 8 9 9 8 7 9 10 10 9 9 8 9 10 11 12 14 16 17 17

GFSNE_700_spd_219.txt.gz
Wind_Speed
43 46 52 53 50 49 50 49 52 61 60 53 52 52 55 54 48 46 49 47 43 41 39 34 34 34 36 33 34 29 42 26 30 33 38 38 40 39
45 49 51 47 46 45 44 47 51 55 59 55 55 55 54 51 47 44 45 45 42 44 40 34 34 33 32 31 34 39 57 32 30 36 35 34 33 39
50 49 45 45 43 43 46 49 52 53 58 54 50 47 45 41 38 36 36 39 40 45 45 38 37 36 35 31 35 39 60 39 37 33 41 32 32 35
47 44 42 42 40 45 49 50 51 50 51 51 44 40 37 35 34 32 32 34 38 43 46 39 39 37 35 31 34 35 34 42 47 26 38 40 38 35
43 41 40 39 42 46 48 47 44 44 43 44 42 37 35 32 32 30 27 28 31 35 47 42 33 35 30 32 35 38 50 54 35 30 37 41 38 41
39 38 37 40 44 45 44 40 40 39 38 39 40 38 33 27 29 28 22 24 23 27 33 45 42 35 34 28 29 29 40 38 32 37 33 36 39 46
35 34 37 40 42 40 39 36 37 38 38 37 34 32 27 25 23 23 22 18 19 23 25 38 46 41 36 31 27 32 39 33 44 43 37 33 36 36
30 32 35 37 34 33 30 32 36 39 40 37 30 29 20 14 16 19 18 17 11 8 13 17 35 33 34 29 29 29 27 37 41 30 37 34 29 35
28 28 29 28 29 27 26 31 34 35 36 38 34 29 19 13 15 16 14 10 7 5 6 9 22 25 23 20 24 18 30 37 42 39 35 26 27 27
24 23 21 23 25 26 29 32 35 36 35 33 30 23 16 10 12 11 11 11 8 8 9 6 13 15 15 16 25 33 39 31 30 32 26 27 29 31
20 20 20 21 23 25 28 29 33 31 29 26 20 11 5 6 9 6 7 16 14 12 14 4 6 17 33 19 20 16 15 29 31 25 25 27 21 28
18 18 20 21 22 25 27 26 31 29 22 14 15 12 5 5 6 11 16 7 11 11 11 8 12 16 20 12 15 19 18 25 27 24 24 21 18 22
13 16 18 20 22 23 25 24 25 25 16 13 16 14 6 7 15 14 12 15 15 11 11 10 9 16 15 15 28 31 26 31 29 30 30 22 17 15
11 14 17 19 19 20 21 21 20 20 14 9 9 7 5 7 9 9 10 16 17 16 18 9 5 8 5 13 24 37 33 33 30 33 28 20 17 18
11 13 16 17 19 20 20 19 18 16 15 11 7 8 5 2 10 11 11 10 13 14 13 16 13 10 3 16 22 38 38 33 31 32 27 20 19 21
10 12 14 15 17 19 18 17 16 16 14 11 10 6 6 9 10 13 13 13 15 15 18 21 21 19 11 24 29 28 28 32 30 29 24 23 21 22
10 11 12 14 16 17 17 16 16 15 15 13 11 8 6 6 10 14 16 16 18 19 20 23 26 25 24 18 13 13 17 24 29 25 24 24 24 22
10 11 11 12 13 14 15 15 15 13 13 12 12 11 8 6 5 8 9 11 12 14 16 19 22 25 29 26 20 15 16 20 19 20 22 21 20 23
10 10 10 11 12 12 13 13 14 13 12 11 10 11 10 8 6 2 2 3 6 9 10 13 16 19 23 22 21 19 15 15 16 17 18 18 19 22
9 10 11 12 12 12 12 12 11 11 11 10 10 9 8 7 6 5 5 5 7 9 10 9 10 12 14 14 15 18 20 17 14 16 18 21 22 23
7 8 9 10 11 12 12 12 10 9 9 8 9 9 8 6 4 4 5 5 6 6 6 9 12 14 14 12 12 17 20 20 16 13 14 19 18 18
6 7 8 9 9 10 11 11 11 10 9 8 7 7 7 6 5 5 7 9 12 12 12 14 15 15 13 12 9 9 13 15 16 17 17 16 14 13
5 6 7 7 8 9 10 9 9 9 9 8 7 6 6 6 5 5 6 9 10 10 11 11 12 11 10 11 9 10 10 11 11 13 13 13 13 14

GFSNE_700_spd_222.txt.gz
Wind_Speed
44 46 48 49 53 55 56 58 58 63 61 57 54 50 50 51 52 52 49 45 44 46 47 44 46 43 41 35 33 30 27 29 37 35 29 34 37 47
47 47 53 52 53 54 52 49 48 50 59 58 56 53 53 52 48 47 43 39 36 38 40 42 44 44 42 35 32 30 30 33 36 37 33 37 34 36
46 51 51 50 50 49 47 45 45 48 54 53 51 53 53 50 46 40 39 40 38 37 37 39 44 44 44 38 33 29 28 30 38 34 25 35 42 39
56 49 47 49 47 45 42 41 45 46 50 53 51 50 46 45 46 43 39 38 37 35 36 34 39 42 42 39 33 30 29 30 34 39 33 33 41 38
43 45 48 47 43 40 39 41 43 45 47 52 52 46 44 41 40 38 37 35 33 33 29 28 31 39 35 42 34 31 30 25 37 35 38 40 42 41
41 43 47 42 38 36 37 39 41 42 43 44 44 44 39 35 36 36 31 31 25 26 23 23 25 31 34 33 31 28 28 31 33 31 38 41 46 41
38 44 42 37 33 33 33 34 37 37 38 41 40 38 32 33 32 29 28 22 19 20 19 23 24 28 40 33 26 24 25 28 33 39 45 30 37 41
39 40 35 30 28 28 30 31 34 36 36 39 37 34 32 31 27 25 23 18 15 17 19 18 17 18 27 32 22 22 22 25 42 30 29 29 36 45
37 30 27 25 24 24 25 28 30 32 36 38 36 35 31 27 22 20 18 14 12 8 9 11 12 10 24 29 29 22 21 30 33 28 27 31 39 41
28 22 21 22 23 23 23 25 27 29 30 29 28 29 27 21 14 14 11 10 7 6 7 3 2 5 11 14 15 17 21 28 30 23 33 38 41 33
21 18 18 19 20 22 22 22 25 26 28 25 22 24 22 15 12 10 10 12 10 7 5 3 2 8 13 18 20 28 19 17 33 45 33 33 31 29
18 16 15 15 16 18 19 21 22 22 23 21 21 20 17 15 13 9 4 5 5 4 6 5 5 13 16 12 10 15 33 33 26 23 25 27 30 24
15 13 13 13 14 16 17 19 20 21 22 22 20 16 11 9 6 5 6 4 9 9 8 10 5 23 12 6 28 26 15 14 25 33 30 28 23 22
14 13 13 13 13 14 15 17 19 20 21 20 19 17 10 5 4 5 7 9 12 15 14 14 13 13 13 13 19 29 28 24 28 31 27 26 27 20
15 14 14 13 13 13 14 15 18 19 19 19 18 17 15 12 10 11 10 9 12 13 15 17 18 15 13 15 7 18 32 27 29 27 24 25 23 18
15 15 14 14 13 12 12 14 16 17 17 17 16 16 15 13 14 13 14 15 14 15 16 17 19 19 19 17 12 12 27 29 32 29 26 28 27 22
16 15 14 14 12 12 12 13 14 16 17 16 15 15 14 12 12 12 13 16 17 18 19 20 21 21 19 14 11 25 31 28 25 26 29 31 27 24
14 14 13 12 11 11 11 12 13 14 15 15 14 13 14 12 10 10 9 9 11 15 18 19 19 20 22 22 18 24 23 17 16 25 26 25 23 19
12 12 10 9 9 9 10 11 12 13 13 13 13 11 11 11 9 8 6 6 7 8 11 13 14 15 18 25 29 27 15 19 21 22 21 19 15 13
9 8 7 6 6 7 8 9 10 10 11 12 11 10 8 8 9 9 8 6 4 4 5 7 8 10 13 15 20 23 25 19 16 16 15 16 17 17
6 5 4 4 5 5 7 8 8 9 9 9 9 9 8 6 6 6 6 4 3 3 5 7 9 10 12 14 16 21 23 20 18 14 13 15 15 15
4 4 4 3 3 5 6 7 7 8 8 8 7 7 8 7 4 4 4 3 4 5 9 12 13 12 12 11 10 12 16 19 19 17 13 10 8 10
3 3 3 4 5 5 5 6 6 7 7 6 5 4 4 5 6 5 6 6 8 10 10 11 13 14 15 15 12 12 11 12 13 14 16 15 13 11

GFSNE_700_spd_225.txt.gz
Wind_Speed
38 38 42 46 49 52 55 61 60 62 63 56 52 47 48 48 48 50 50 49 47 47 47 45 43 43 43 46 46 44 39 34 31 21 29 30 25 29
37 40 45 48 52 56 58 51 51 56 62 55 49 49 48 48 48 47 48 49 49 46 42 42 41 41 40 43 43 42 36 30 28 31 28 37 31 28
39 42 47 51 55 47 45 46 47 49 53 50 49 48 49 51 52 50 49 49 49 47 43 41 38 39 37 38 36 35 34 29 31 31 33 32 26 31
40 44 50 53 51 43 45 46 45 43 47 49 42 43 47 50 52 53 51 49 49 43 39 36 33 32 32 33 35 35 35 29 31 31 36 41 40 37
42 46 49 53 44 41 43 43 41 39 40 42 42 43 45 46 47 47 48 47 44 38 35 33 30 28 26 28 31 36 33 29 30 22 22 43 37 39
44 48 52 43 38 39 43 40 36 35 36 38 40 42 43 42 44 47 43 41 34 32 30 28 26 25 24 26 27 34 29 29 29 25 38 33 27 35
45 49 42 37 38 39 35 33 33 34 36 37 38 39 39 37 37 37 39 31 25 27 24 24 24 24 24 21 21 25 26 30 27 25 31 28 26 32
44 42 36 36 37 31 29 30 33 34 34 37 36 37 33 34 34 31 26 20 21 22 20 19 19 18 17 17 25 25 26 27 26 24 24 28 28 35
40 33 36 35 29 26 27 30 31 32 33 32 32 32 30 33 34 29 24 21 18 16 14 14 14 14 13 8 20 25 20 24 30 26 27 28 40 38
32 33 31 30 24 24 25 26 26 26 27 28 30 31 30 32 33 27 21 20 16 11 13 12 9 7 5 7 12 15 20 19 25 27 36 50 29 33
28 31 27 23 21 22 21 20 21 22 23 25 26 26 26 27 29 23 18 19 11 9 8 11 10 6 3 7 11 17 12 12 20 23 23 23 21 39
30 25 21 19 20 19 18 17 18 18 19 22 23 24 24 23 24 21 14 14 12 8 5 9 8 4 2 4 7 18 18 19 18 17 13 30 25 39
26 20 18 18 19 18 17 17 17 17 16 18 20 21 21 20 19 18 15 15 13 11 7 1 9 10 15 4 13 14 7 7 21 38 33 22 28 29
21 18 18 18 19 19 18 19 18 17 16 17 18 20 20 18 18 17 17 19 14 8 10 6 5 2 8 11 17 18 9 7 17 18 25 28 28 24
20 19 19 19 18 19 20 19 17 16 16 17 18 18 19 19 17 18 18 17 16 11 11 12 10 11 13 12 8 17 12 8 14 21 26 29 25 22
19 18 18 18 18 19 18 17 16 16 17 18 18 18 18 18 19 18 17 18 17 16 15 15 15 17 18 16 16 15 20 18 20 24 24 24 21 21
18 18 17 17 17 16 15 15 14 15 16 16 17 18 18 17 17 18 17 17 16 16 16 18 19 19 21 22 22 16 16 24 22 26 26 22 22 24
16 15 14 14 14 13 12 12 13 13 14 15 16 17 17 17 16 16 15 14 13 13 13 16 18 19 21 22 24 13 17 26 23 23 24 23 22 20
13 12 12 12 11 10 10 11 11 12 12 13 14 15 16 16 16 15 13 12 13 11 10 10 11 13 16 22 25 23 20 22 22 21 22 21 20 19
11 10 10 9 8 8 8 8 8 9 10 11 13 13 14 14 15 15 13 11 10 9 8 6 8 10 14 15 20 27 26 22 19 19 18 20 19 17
10 9 8 7 7 7 7 7 8 9 10 11 12 12 12 13 13 12 12 11 9 7 6 4 4 9 14 16 19 24 25 24 21 17 16 15 14 15
9 8 7 6 6 6 7 8 8 9 10 10 11 11 11 10 9 9 9 7 5 4 3 2 4 6 9 12 14 17 22 20 19 17 14 10 7 8
8 7 5 5 6 7 7 9 9 10 10 10 10 10 9 7 6 6 5 4 4 6 7 8 9 11 13 12 9 10 14 16 18 21 20 18 15 14

GFSNE_700_spd_231.txt.gz
Wind_Speed
32 26 30 30 30 30 31 35 39 44 48 50 51 47 43 41 37 36 37 36 35 37 39 41 42 42 40 40 39 39 38 36 35 36 34 35 35 34
29 29 29 30 29 30 32 36 39 43 49 52 53 48 42 36 35 37 38 39 37 38 37 38 39 39 38 36 34 34 34 34 33 32 30 29 28 24
29 28 30 30 30 30 33 38 40 44 49 50 49 44 39 37 36 36 37 38 37 37 37 37 36 36 34 31 31 32 32 31 31 29 26 26 23 22
27 31 29 35 33 32 36 39 40 44 48 50 40 37 38 38 36 35 35 36 36 35 36 35 35 33 30 29 28 27 26 25 25 24 22 25 25 25
28 28 32 33 34 35 37 40 41 44 47 43 38 35 34 35 33 34 35 35 36 36 35 33 31 29 26 23 23 23 22 22 22 23 23 29 29 31
31 31 33 32 34 37 39 41 41 42 42 38 34 32 32 31 32 30 30 33 33 33 33 30 27 25 25 23 23 24 23 21 21 23 23 28 29 28
31 34 35 36 38 39 40 40 42 42 37 32 30 28 28 27 27 26 26 27 28 27 25 22 22 25 26 28 27 28 24 22 21 25 27 26 27 26
31 34 33 36 41 40 41 43 43 38 31 27 26 25 25 23 23 22 23 24 23 22 19 21 23 27 29 30 30 25 22 21 22 26 25 24 22 23
29 36 33 40 41 43 44 40 39 31 26 24 24 25 22 20 19 20 21 23 24 23 21 21 25 30 29 28 27 22 21 16 17 23 21 20 19 23
27 32 40 40 39 43 39 41 32 27 24 23 23 22 21 20 19 19 19 20 22 23 22 20 22 26 30 26 22 20 10 4 7 12 18 19 18 23
35 34 35 38 41 41 41 30 28 24 22 22 23 22 21 20 20 19 19 20 19 19 20 19 19 21 25 29 19 15 9 7 9 9 16 17 18 20
31 34 36 39 40 37 24 24 23 22 22 21 22 22 22 21 21 20 20 20 20 18 17 18 18 21 23 25 17 10 6 7 7 16 14 15 18 23
32 35 37 37 33 23 22 21 21 20 21 21 21 21 21 21 21 20 20 21 20 20 18 15 17 17 18 18 14 11 7 6 4 10 14 15 19 27
36 39 37 29 22 20 20 19 18 19 20 20 20 19 18 19 20 20 20 21 20 19 19 17 15 16 13 9 8 15 15 9 3 8 3 29 11 33
41 33 28 20 19 17 18 19 19 19 19 19 19 17 17 17 17 18 19 20 19 19 18 18 16 14 13 10 10 8 12 11 2 5 8 21 41 45
30 30 20 17 16 17 18 18 19 19 18 17 16 16 16 16 17 18 19 19 19 18 17 17 16 15 13 9 6 7 5 5 9 20 28 32 30 25
28 22 21 17 16 16 17 17 17 17 16 16 15 13 13 14 15 16 18 18 18 17 16 16 15 14 12 8 5 5 3 5 23 30 27 28 25 22
22 19 17 14 14 15 15 17 16 14 14 13 12 11 12 13 14 16 16 17 17 17 16 15 14 12 11 11 14 18 13 16 26 24 18 17 17 18
18 13 12 12 13 15 15 13 12 12 11 10 10 10 12 13 14 15 16 16 17 17 16 13 12 11 11 13 17 21 18 21 20 20 20 20 16 17
14 13 13 13 14 14 12 10 11 10 9 9 9 11 12 13 15 15 15 16 16 15 14 12 11 9 8 10 12 21 24 20 20 22 23 23 20 18
15 14 14 13 13 11 9 9 9 8 8 9 10 12 13 13 13 14 13 13 13 12 11 10 8 6 4 6 10 16 24 22 21 18 18 17 15 14
16 14 12 11 9 9 9 8 7 7 8 10 11 11 12 12 12 11 11 10 9 9 10 9 7 5 1 4 6 8 14 18 18 15 13 11 8 7
13 11 10 9 8 8 7 7 7 8 9 10 10 11 11 11 10 9 8 7 7 8 9 8 7 4 4 6 6 7 11 14 15 16 16 17 16 16

GFSNE_700_spd_237.txt.gz
Wind_Speed
38 36 36 37 36 38 36 34 33 34 36 39 36 41 39 40 42 42 45 49 48 40 37 36 37 35 35 36 37 36 36 36 36 36 37 37 37 37
39 37 34 35 38 39 37 34 33 33 36 35 40 41 40 40 44 44 46 48 41 36 34 32 30 30 31 31 31 33 34 35 36 37 37 38 39 38
41 38 36 35 38 40 38 35 34 33 35 35 40 40 41 42 42 45 47 44 37 34 31 29 26 26 29 30 31 33 36 37 39 39 39 38 38 36
41 38 35 36 34 39 31 32 34 37 35 37 37 40 42 42 44 45 45 40 36 31 27 26 25 27 29 31 31 33 36 38 40 41 41 39 37 34
41 37 36 31 32 28 29 33 35 37 36 37 39 41 41 43 42 42 40 35 33 27 24 24 27 28 29 32 34 34 36 39 41 41 40 37 35 31
41 36 33 30 32 32 30 34 36 38 35 37 39 39 40 40 41 37 31 32 28 26 25 24 25 27 30 33 34 35 37 40 42 44 40 36 31 25
38 40 33 38 36 34 33 32 33 35 37 38 37 39 40 40 37 34 32 28 27 24 25 25 25 27 30 32 33 35 38 40 42 43 36 31 25 21
39 38 33 34 32 33 32 34 32 35 37 36 38 40 39 35 31 31 31 28 24 24 23 27 27 30 31 32 34 37 38 38 38 34 30 27 22 19
37 34 35 33 32 32 32 33 34 32 34 37 38 39 34 30 28 28 29 28 27 24 23 26 27 29 30 32 34 36 36 35 33 30 28 25 19 14
36 36 32 30 32 33 33 33 31 32 34 36 38 33 29 27 27 28 28 27 26 24 24 24 26 27 29 31 33 34 34 33 31 30 30 20 15 12
37 35 35 33 33 33 32 31 31 33 34 36 33 29 26 25 26 27 27 25 23 23 24 25 26 26 28 30 31 32 31 29 29 29 28 14 16 14
37 38 36 32 31 30 30 30 31 34 36 34 29 25 23 24 26 26 24 22 22 22 22 23 26 28 26 28 31 31 30 29 29 29 24 13 9 10
39 39 32 31 29 29 30 31 33 35 34 28 24 22 22 24 24 23 22 21 21 22 22 23 25 26 28 29 29 29 28 27 27 25 20 11 10 7
38 35 33 31 29 31 33 34 34 33 27 23 21 21 22 23 22 20 20 19 19 19 21 22 23 24 25 26 27 27 27 26 26 21 16 6 5 7
42 37 36 34 32 33 33 32 31 27 21 20 20 20 21 20 19 19 18 17 17 18 19 21 22 23 24 25 25 24 23 21 21 15 8 3 6 6
44 41 40 38 36 36 29 28 24 20 20 20 19 19 18 17 16 15 15 14 16 16 18 20 20 21 22 22 22 21 18 17 12 7 6 4 5 27
49 46 42 38 38 28 23 21 18 19 19 17 16 15 15 14 13 13 14 15 17 18 19 20 20 21 21 19 18 16 12 10 7 10 8 28 30 27
50 47 42 29 22 19 18 18 17 17 16 14 14 14 13 12 12 13 14 17 18 19 19 20 20 20 19 16 13 9 4 4 11 13 17 22 27 29
29 32 23 22 16 17 17 17 15 13 13 13 12 11 10 11 12 14 15 17 18 18 19 19 19 19 17 14 10 9 7 7 8 9 14 18 20 20
32 21 18 17 16 16 15 13 12 12 12 10 10 9 9 11 13 15 16 16 17 17 17 17 17 16 14 11 9 10 16 12 9 11 14 14 11 10
24 21 20 18 16 13 12 11 12 10 9 9 8 8 10 12 13 14 15 15 15 15 14 14 13 12 10 7 5 6 8 12 14 14 12 8 6 7
21 20 16 15 13 12 12 11 10 8 7 8 8 9 11 12 13 14 13 12 12 11 11 10 9 8 7 4 0 2 6 10 13 12 10 9 7 5
20 17 17 15 13 12 10 10 8 7 7 7 8 10 11 11 11 11 9 9 8 7 7 7 7 6 4 1 3 3 3 7 10 11 11 11 11 12